| time (UTC) | temp F | wind direction | speed MPH | gust MPH | rain 1hr in | rain 24hr in | rain mn in | humidity % | barometer mb |
| 20260504021004 | 49 | 296 | 0.0 | 0.0 | 0.00 | 0.00 | 0.00 | 55 | 1012.2 |
| 20260504020504 | 49 | 296 | 0.0 | 0.0 | 0.00 | 0.00 | 0.00 | 55 | 1012.2 |
| 20260504020004 | 49 | 296 | 0.0 | 0.0 | 0.00 | 0.00 | 0.00 | 54 | 1012.2 |
| 20260504015503 | 50 | 296 | 0.0 | 0.0 | 0.00 | 0.00 | 0.00 | 52 | 1012.1 |
| 20260504015004 | 50 | 296 | 0.0 | 1.0 | 0.00 | 0.00 | 0.00 | 51 | 1012.1 |
| 20260504014503 | 51 | 296 | 0.0 | 0.0 | 0.00 | 0.00 | 0.00 | 51 | 1012.0 |
| 20260504014004 | 51 | 296 | 0.0 | 0.0 | 0.00 | 0.00 | 0.00 | 49 | 1011.9 |
| 20260504013504 | 52 | 296 | 0.0 | 0.0 | 0.00 | 0.00 | 0.00 | 48 | 1011.9 |
| 20260504013004 | 52 | 296 | 0.0 | 0.0 | 0.00 | 0.00 | 0.00 | 47 | 1011.8 |
| 20260504012504 | 53 | 296 | 0.0 | 0.0 | 0.00 | 0.00 | 0.00 | 46 | 1011.7 |
| 20260504012004 | 53 | 296 | 0.0 | 0.0 | 0.00 | 0.00 | 0.00 | 45 | 1011.7 |
| 20260504011503 | 54 | 296 | 0.0 | 0.0 | 0.00 | 0.00 | 0.00 | 44 | 1011.7 |
| 20260504011004 | 54 | 296 | 0.0 | 0.0 | 0.00 | 0.00 | 0.00 | 45 | 1011.6 |
| 20260504010504 | 55 | 296 | 0.0 | 0.0 | 0.00 | 0.00 | 0.00 | 42 | 1011.5 |
| 20260504010004 | 55 | 296 | 0.0 | 0.0 | 0.00 | 0.00 | 0.00 | 41 | 1011.4 |
| 20260504005504 | 55 | 296 | 0.0 | 0.0 | 0.00 | 0.00 | 0.00 | 41 | 1011.4 |
| 20260504005004 | 56 | 296 | 0.0 | 0.0 | 0.00 | 0.00 | 0.00 | 38 | 1011.4 |
| 20260504004504 | 56 | 296 | 0.0 | 0.0 | 0.00 | 0.00 | 0.00 | 40 | 1011.2 |
| 20260504004004 | 56 | 296 | 0.0 | 0.0 | 0.00 | 0.00 | 0.00 | 37 | 1011.2 |
| 20260504003504 | 57 | 296 | 0.0 | 0.0 | 0.00 | 0.00 | 0.00 | 37 | 1011.1 |
| 20260504003004 | 57 | 296 | 0.0 | 1.0 | 0.00 | 0.00 | 0.00 | 37 | 1011.1 |
| 20260504002504 | 57 | 296 | 0.0 | 1.0 | 0.00 | 0.00 | 0.00 | 35 | 1011.0 |
| 20260504002004 | 57 | 296 | 1.0 | 2.0 | 0.00 | 0.00 | 0.00 | 34 | 1011.0 |
| 20260504001004 | 57 | 273 | 2.0 | 3.0 | 0.00 | 0.00 | 0.00 | 33 | 1010.8 |
| 20260504000505 | 58 | 280 | 2.0 | 8.0 | 0.00 | 0.00 | 0.00 | 33 | 1010.7 |
| 20260504000004 | 58 | 257 | 1.0 | 3.0 | 0.00 | 0.00 | 0.00 | 33 | 1010.7 |
| 20260503235504 | 58 | 293 | 3.0 | 7.0 | 0.00 | 0.00 | 0.00 | 32 | 1010.6 |
| 20260503235004 | 58 | 286 | 3.0 | 6.0 | 0.00 | 0.00 | 0.00 | 32 | 1010.5 |
| 20260503234504 | 58 | 278 | 3.0 | 6.0 | 0.00 | 0.00 | 0.00 | 32 | 1010.5 |
| 20260503233004 | 59 | 323 | 3.0 | 12.0 | 0.00 | 0.00 | 0.00 | 31 | 1010.4 |
| 20260503232004 | 59 | 290 | 0.0 | 3.0 | 0.00 | 0.00 | 0.00 | 31 | 1010.3 |
| 20260503231504 | 59 | 270 | 0.0 | 3.0 | 0.00 | 0.00 | 0.00 | 32 | 1010.4 |
| 20260503231004 | 59 | 288 | 0.0 | 1.0 | 0.00 | 0.00 | 0.00 | 32 | 1010.3 |
| 20260503230504 | 59 | 284 | 3.0 | 9.0 | 0.00 | 0.00 | 0.00 | 30 | 1010.3 |
| 20260503225504 | 59 | 297 | 2.0 | 9.0 | 0.00 | 0.00 | 0.00 | 30 | 1010.2 |
| 20260503225004 | 59 | 277 | 5.0 | 12.0 | 0.00 | 0.00 | 0.00 | 29 | 1010.2 |
| 20260503224504 | 60 | 271 | 5.0 | 16.0 | 0.00 | 0.00 | 0.00 | 29 | 1010.1 |
| 20260503224004 | 60 | 280 | 6.0 | 15.0 | 0.00 | 0.00 | 0.00 | 29 | 1010.2 |
| 20260503223504 | 60 | 292 | 2.0 | 7.0 | 0.00 | 0.00 | 0.00 | 30 | 1010.0 |
| 20260503222504 | 60 | 284 | 1.0 | 9.0 | 0.00 | 0.00 | 0.00 | 29 | 1010.2 |
| 20260503222004 | 60 | 341 | 4.0 | 13.0 | 0.00 | 0.00 | 0.00 | 28 | 1010.1 |
| 20260503221504 | 61 | 297 | 6.0 | 18.0 | 0.00 | 0.00 | 0.00 | 28 | 1010.0 |
| 20260503221004 | 61 | 320 | 3.0 | 14.0 | 0.00 | 0.00 | 0.00 | 28 | 1010.0 |
| 20260503220504 | 61 | 286 | 2.0 | 14.0 | 0.00 | 0.00 | 0.00 | 29 | 1010.0 |
| 20260503220005 | 61 | 273 | 8.0 | 18.0 | 0.00 | 0.00 | 0.00 | 28 | 1009.9 |
| 20260503215504 | 61 | 286 | 4.0 | 12.0 | 0.00 | 0.00 | 0.00 | 29 | 1009.9 |
| 20260503215004 | 61 | 3 | 2.0 | 12.0 | 0.00 | 0.00 | 0.00 | 31 | 1009.9 |
| 20260503214004 | 61 | 354 | 3.0 | 10.0 | 0.00 | 0.00 | 0.00 | 27 | 1010.0 |
| 20260503213504 | 61 | 283 | 5.0 | 14.0 | 0.00 | 0.00 | 0.00 | 27 | 1010.0 |
| 20260503212504 | 60 | 276 | 3.0 | 8.0 | 0.00 | 0.00 | 0.00 | 29 | 1009.9 |
| 20260503212004 | 60 | 36 | 2.0 | 8.0 | 0.00 | 0.00 | 0.00 | 29 | 1010.0 |
| 20260503205504 | 59 | 279 | 9.0 | 18.0 | 0.00 | 0.00 | 0.00 | 28 | 1010.1 |
| 20260503204504 | 59 | 21 | 7.0 | 20.0 | 0.00 | 0.00 | 0.00 | 28 | 1010.1 |
| 20260503203504 | 59 | 332 | 4.0 | 12.0 | 0.00 | 0.00 | 0.00 | 29 | 1010.2 |
| 20260503203004 | 59 | 284 | 3.0 | 9.0 | 0.00 | 0.00 | 0.00 | 30 | 1010.2 |
| 20260503202504 | 59 | 328 | 6.0 | 17.0 | 0.00 | 0.00 | 0.00 | 29 | 1010.1 |
| 20260503202004 | 59 | 275 | 9.0 | 15.0 | 0.00 | 0.00 | 0.00 | 30 | 1010.1 |
| 20260503201504 | 59 | 309 | 7.0 | 17.0 | 0.00 | 0.00 | 0.00 | 29 | 1010.5 |
| 20260503201004 | 58 | 308 | 7.0 | 23.0 | 0.00 | 0.00 | 0.00 | 29 | 1010.5 |
| 20260503200504 | 58 | 297 | 5.0 | 20.0 | 0.00 | 0.00 | 0.00 | 31 | 1010.5 |
| 20260503195503 | 59 | 301 | 2.0 | 13.0 | 0.00 | 0.00 | 0.00 | 30 | 1010.5 |
| 20260503195005 | 59 | 326 | 6.0 | 14.0 | 0.00 | 0.00 | 0.00 | 30 | 1010.5 |
| 20260503194504 | 59 | 299 | 6.0 | 14.0 | 0.00 | 0.00 | 0.00 | 31 | 1010.5 |
| 20260503194003 | 59 | 22 | 5.0 | 15.0 | 0.00 | 0.00 | 0.00 | 31 | 1010.6 |
| 20260503193504 | 59 | 13 | 3.0 | 12.0 | 0.00 | 0.00 | 0.00 | 31 | 1010.6 |
| 20260503193004 | 58 | 305 | 5.0 | 17.0 | 0.00 | 0.00 | 0.00 | 31 | 1010.6 |
| 20260503191504 | 58 | 282 | 7.0 | 20.0 | 0.00 | 0.00 | 0.00 | 31 | 1010.7 |
| 20260503191004 | 59 | 268 | 7.0 | 16.0 | 0.00 | 0.00 | 0.00 | 31 | 1010.7 |
| 20260503190504 | 58 | 0 | 5.0 | 10.0 | 0.00 | 0.00 | 0.00 | 31 | 1010.8 |
| 20260503190005 | 58 | 320 | 4.0 | 12.0 | 0.00 | 0.00 | 0.00 | 34 | 1010.8 |
| 20260503185504 | 57 | 339 | 3.0 | 10.0 | 0.00 | 0.00 | 0.00 | 35 | 1010.8 |
| 20260503185004 | 57 | 17 | 3.0 | 12.0 | 0.00 | 0.00 | 0.00 | 34 | 1010.8 |
| 20260503184504 | 57 | 312 | 7.0 | 16.0 | 0.00 | 0.00 | 0.00 | 34 | 1010.9 |
| 20260503184004 | 58 | 273 | 11.0 | 21.0 | 0.00 | 0.00 | 0.00 | 33 | 1010.8 |
| 20260503183504 | 57 | 18 | 3.0 | 20.0 | 0.00 | 0.00 | 0.00 | 35 | 1010.9 |
| 20260503183004 | 56 | 318 | 5.0 | 16.0 | 0.00 | 0.00 | 0.00 | 35 | 1011.2 |
| 20260503182505 | 56 | 290 | 9.0 | 23.0 | 0.00 | 0.00 | 0.00 | 35 | 1011.2 |
| 20260503182005 | 56 | 292 | 7.0 | 20.0 | 0.00 | 0.00 | 0.00 | 35 | 1010.9 |
| 20260503181505 | 56 | 282 | 11.0 | 22.0 | 0.00 | 0.00 | 0.00 | 34 | 1010.9 |
| 20260503181004 | 56 | 306 | 7.0 | 14.0 | 0.00 | 0.00 | 0.00 | 34 | 1010.9 |
| 20260503180505 | 55 | 323 | 5.0 | 20.0 | 0.00 | 0.00 | 0.00 | 37 | 1010.9 |
| 20260503180005 | 55 | 267 | 8.0 | 20.0 | 0.00 | 0.00 | 0.00 | 35 | 1011.1 |
| 20260503175504 | 55 | 284 | 7.0 | 17.0 | 0.00 | 0.00 | 0.00 | 37 | 1011.1 |
| 20260503175005 | 55 | 269 | 5.0 | 10.0 | 0.00 | 0.00 | 0.00 | 38 | 1011.2 |
| 20260503174505 | 54 | 276 | 3.0 | 12.0 | 0.00 | 0.00 | 0.00 | 39 | 1011.5 |
| 20260503174004 | 54 | 311 | 5.0 | 10.0 | 0.00 | 0.00 | 0.00 | 40 | 1011.5 |
| 20260503172504 | 53 | 348 | 4.0 | 16.0 | 0.00 | 0.00 | 0.00 | 39 | 1011.5 |
| 20260503172004 | 53 | 314 | 9.0 | 26.0 | 0.00 | 0.00 | 0.00 | 39 | 1011.7 |
| 20260503171504 | 53 | 295 | 7.0 | 18.0 | 0.00 | 0.00 | 0.00 | 41 | 1011.7 |
| 20260503171004 | 52 | 25 | 5.0 | 12.0 | 0.00 | 0.00 | 0.00 | 41 | 1011.7 |
| 20260503170504 | 52 | 302 | 8.0 | 20.0 | 0.00 | 0.00 | 0.00 | 42 | 1011.7 |
| 20260503151004 | 49 | 319 | 2.0 | 8.0 | 0.00 | 0.00 | 0.00 | 46 | 1012.1 |
| 20260503150504 | 49 | 310 | 4.0 | 12.0 | 0.00 | 0.00 | 0.00 | 47 | 1012.1 |
| 20260503131004 | 46 | 336 | 2.0 | 14.0 | 0.00 | 0.00 | 0.00 | 56 | 1012.1 |
| 20260503130503 | 46 | 322 | 3.0 | 12.0 | 0.00 | 0.00 | 0.00 | 56 | 1012.0 |
| 20260503110504 | 43 | 10 | 3.0 | 12.0 | 0.00 | 0.00 | 0.00 | 62 | 1011.3 |
| 20260503081504 | 45 | 16 | 3.0 | 9.0 | 0.00 | 0.00 | 0.00 | 55 | 1010.3 |
| 20260503072505 | 46 | 9 | 2.0 | 12.0 | 0.00 | 0.00 | 0.00 | 56 | 1010.2 |
| 20260503072003 | 46 | 317 | 0.0 | 2.0 | 0.00 | 0.00 | 0.00 | 55 | 1010.2 |
| 20260503071504 | 46 | 354 | 3.0 | 12.0 | 0.00 | 0.00 | 0.00 | 54 | 1010.2 |
| 20260503071004 | 46 | 26 | 2.0 | 6.0 | 0.00 | 0.00 | 0.00 | 54 | 1010.3 |
| 20260503070504 | 46 | 2 | 2.0 | 3.0 | 0.00 | 0.00 | 0.00 | 55 | 1010.3 |
| 20260503055004 | 48 | 7 | 2.0 | 3.0 | 0.00 | 0.00 | 0.00 | 50 | 1010.6 |
| 20260503054504 | 48 | 13 | 1.0 | 2.0 | 0.00 | 0.00 | 0.00 | 51 | 1010.6 |
| 20260503054004 | 48 | 20 | 1.0 | 3.0 | 0.00 | 0.00 | 0.00 | 53 | 1010.6 |
| 20260503053504 | 48 | 20 | 2.0 | 5.0 | 0.00 | 0.00 | 0.00 | 49 | 1010.6 |
| 20260503053004 | 48 | 6 | 2.0 | 7.0 | 0.00 | 0.00 | 0.00 | 48 | 1010.7 |
| 20260503052504 | 49 | 14 | 2.0 | 8.0 | 0.00 | 0.00 | 0.00 | 49 | 1010.7 |
| 20260503052004 | 49 | 355 | 1.0 | 3.0 | 0.00 | 0.00 | 0.00 | 49 | 1010.7 |
| 20260503051004 | 49 | 84 | 0.0 | 12.0 | 0.00 | 0.00 | 0.00 | 48 | 1010.8 |
| 20260503050504 | 49 | 0 | 1.0 | 7.0 | 0.00 | 0.00 | 0.00 | 48 | 1010.8 |
| 20260503050005 | 49 | 30 | 1.0 | 3.0 | 0.00 | 0.00 | 0.00 | 49 | 1010.8 |
| 20260503045504 | 49 | 51 | 0.0 | 12.0 | 0.00 | 0.00 | 0.00 | 49 | 1010.7 |
| 20260503045004 | 49 | 48 | 1.0 | 7.0 | 0.00 | 0.00 | 0.00 | 48 | 1010.8 |
| 20260503044004 | 49 | 12 | 1.0 | 3.0 | 0.00 | 0.00 | 0.00 | 47 | 1010.9 |
| 20260503043504 | 49 | 347 | 1.0 | 3.0 | 0.00 | 0.00 | 0.00 | 47 | 1010.9 |
| 20260503043004 | 49 | 14 | 1.0 | 7.0 | 0.00 | 0.00 | 0.00 | 47 | 1011.0 |
| 20260503042504 | 49 | 0 | 1.0 | 5.0 | 0.00 | 0.00 | 0.00 | 47 | 1010.9 |
| 20260503042004 | 49 | 4 | 2.0 | 9.0 | 0.00 | 0.00 | 0.00 | 46 | 1011.0 |
| 20260503041004 | 50 | 355 | 2.0 | 9.0 | 0.00 | 0.00 | 0.00 | 46 | 1011.0 |
| 20260503040505 | 50 | 6 | 2.0 | 8.0 | 0.00 | 0.00 | 0.00 | 46 | 1010.9 |
| 20260503040004 | 50 | 344 | 3.0 | 8.0 | 0.00 | 0.00 | 0.00 | 46 | 1010.9 |
| 20260503035504 | 50 | 332 | 1.0 | 10.0 | 0.00 | 0.00 | 0.00 | 46 | 1011.0 |
| 20260503035004 | 50 | 49 | 1.0 | 3.0 | 0.00 | 0.00 | 0.00 | 46 | 1010.9 |
| 20260503034504 | 50 | 13 | 2.0 | 3.0 | 0.00 | 0.00 | 0.00 | 45 | 1010.9 |
| 20260503034004 | 50 | 14 | 2.0 | 5.0 | 0.00 | 0.00 | 0.00 | 45 | 1010.9 |
| 20260503033504 | 50 | 23 | 3.0 | 12.0 | 0.00 | 0.00 | 0.00 | 45 | 1010.9 |
| 20260503033005 | 50 | 5 | 1.0 | 3.0 | 0.00 | 0.00 | 0.00 | 44 | 1010.9 |
| 20260503032504 | 50 | 5 | 3.0 | 10.0 | 0.00 | 0.00 | 0.00 | 43 | 1010.8 |
| 20260503032004 | 50 | 319 | 2.0 | 8.0 | 0.00 | 0.00 | 0.00 | 44 | 1010.9 |
| 20260503031504 | 51 | 27 | 2.0 | 8.0 | 0.00 | 0.00 | 0.00 | 44 | 1010.8 |
| 20260503030504 | 51 | 49 | 1.0 | 5.0 | 0.00 | 0.00 | 0.00 | 44 | 1011.0 |
| 20260503030004 | 51 | 23 | 2.0 | 9.0 | 0.00 | 0.00 | 0.00 | 43 | 1011.0 |
| 20260503025504 | 51 | 328 | 1.0 | 3.0 | 0.00 | 0.00 | 0.00 | 44 | 1011.1 |
| 20260503025004 | 51 | 271 | 1.0 | 5.0 | 0.00 | 0.00 | 0.00 | 44 | 1011.1 |
| 20260503024504 | 51 | 312 | 1.0 | 3.0 | 0.00 | 0.00 | 0.00 | 44 | 1011.1 |
| 20260503024004 | 51 | 339 | 1.0 | 8.0 | 0.00 | 0.00 | 0.00 | 44 | 1011.0 |
| 20260503023504 | 51 | 0 | 2.0 | 5.0 | 0.00 | 0.00 | 0.00 | 44 | 1011.0 |
| 20260503023004 | 51 | 9 | 1.0 | 7.0 | 0.00 | 0.00 | 0.00 | 44 | 1011.1 |
| 20260503022504 | 51 | 17 | 2.0 | 5.0 | 0.00 | 0.00 | 0.00 | 43 | 1011.1 |
| 20260503022004 | 52 | 46 | 2.0 | 5.0 | 0.00 | 0.00 | 0.00 | 43 | 1011.0 |
| 20260503021504 | 52 | 0 | 1.0 | 3.0 | 0.00 | 0.00 | 0.00 | 44 | 1011.1 |